Weather History for Huntsville, AL

Change the Weather History Date:

Monday, October 29, 2012

  Actual Average Record
Temperature  
Mean Temperature 47 °F 59 °F  
Max Temperature 57 °F 70 °F 86 °F (1927)
Min Temperature 37 °F 47 °F 23 °F (1910)
Degree Days  
Heating Degree Days 18 7  
Month to date heating degree days 136 123  
Since 1 July heating degree days 147 136  
Cooling Degree Days 0 1  
Month to date cooling degree days 39 68  
Year to date cooling degree days 2094 1938  
Moisture  
Dew Point 26 °F    
Average Humidity 49    
Maximum Humidity 76    
Minimum Humidity 22    
Precipitation  
Precipitation 0.00 in 0.12 in 0.99 in (1955)
Month to date precipitation 3.91 3.33  
Year to date precipitation 43.46 43.37  
Snow  
Snow 0.00 in - - ()
Month to date snowfall 0.0  
Since 1 July snowfall 0.0  
Since 1 September snowfall 0.0  
Snow Depth 0.00 in    
Sea Level Pressure  
Sea Level Pressure 30.03 in    
Wind  
Wind Speed 11 mph (NNW)    
Max Wind Speed 23 mph    
Max Gust Speed 30 mph    
Visibility 10 miles    
Events      
T = Trace of Precipitation, MM = Missing Value Source: NWS Daily Summary

Daily Weather History Graph

Daily Weather History Graph

Search for Another Location

Airport:

Trip Planner

Search our weather history database for the weather conditions in past years. The results will help you decide how hot, cold, wet, or windy it might be!

Date:

Astronomy

Oct. 29, 2012 Rise Set
Actual Time 7:05 AM CDT 5:55 PM CDT
Civil Twilight 6:39 AM CDT 6:21 PM CDT
Nautical Twilight 6:09 AM CDT 6:51 PM CDT
Astronomical Twilight 5:40 AM CDT 7:20 PM CDT
Moon 5:49 PM CDT (10/29) 6:54 AM CDT (10/29)
Length of Visible Light 11h 42m
Length of Day
10h 50m
Full, 100% of the Moon is Illuminated
Oct 29
Full
Oct 29
Full
Nov 6
Last Quarter
Nov 13
New
Nov 20
First Quarter

Hourly Weather History & Observations

Time (CDT) Temp. Windchill Dew Point Humidity Pressure Visibility Wind Dir Wind Speed Gust Speed Precip Events Conditions
12:53 AM 42.1 °F 37.7 °F 30.9 °F 65% 30.06 in 10.0 mi NNW 6.9 mph - N/A   Clear
1:53 AM 41.0 °F 36.4 °F 30.9 °F 67% 30.06 in 10.0 mi NW 6.9 mph - N/A   Clear
2:53 AM 39.9 °F 35.8 °F 30.9 °F 70% 30.06 in 10.0 mi NNW 5.8 mph - N/A   Clear
3:53 AM 39.0 °F 34.8 °F 30.0 °F 70% 30.06 in 10.0 mi NW 5.8 mph - N/A   Clear
4:53 AM 37.0 °F 33.3 °F 30.0 °F 76% 30.06 in 10.0 mi NNW 4.6 mph - N/A   Clear
5:53 AM 37.0 °F 31.6 °F 30.0 °F 76% 30.07 in 10.0 mi NNW 6.9 mph - N/A   Clear
6:53 AM 37.0 °F 31.0 °F 28.9 °F 73% 30.09 in 10.0 mi NW 8.1 mph - N/A   Clear
7:53 AM 39.0 °F 33.4 °F 30.0 °F 70% 30.09 in 10.0 mi NNW 8.1 mph - N/A   Clear
8:53 AM 44.1 °F 38.6 °F 30.0 °F 58% 30.10 in 10.0 mi North 10.4 mph 16.1 mph N/A   Clear
9:53 AM 48.9 °F - 28.0 °F 44% 30.10 in 10.0 mi North 16.1 mph 23.0 mph N/A   Partly Cloudy
10:53 AM 51.1 °F - 27.0 °F 39% 30.09 in 10.0 mi North 15.0 mph 25.3 mph N/A   Partly Cloudy
12:53 PM 53.1 °F - 26.1 °F 35% 30.05 in 10.0 mi NNW 15.0 mph 26.5 mph N/A   Clear
1:53 PM 55.0 °F - 24.1 °F 30% 30.03 in 10.0 mi North 17.3 mph 26.5 mph N/A   Clear
2:53 PM 55.9 °F - 21.9 °F 27% 30.00 in 10.0 mi NNW 18.4 mph 27.6 mph N/A   Clear
3:53 PM 55.9 °F - 19.9 °F 25% 29.99 in 10.0 mi NNW 16.1 mph 26.5 mph N/A   Clear
4:53 PM 55.0 °F - 17.1 °F 23% 29.98 in 10.0 mi NNW 16.1 mph 26.5 mph N/A   Clear
5:53 PM 51.1 °F - 19.0 °F 28% 29.98 in 10.0 mi NNW 11.5 mph - N/A   Partly Cloudy
6:53 PM 48.9 °F - 19.9 °F 32% 29.98 in 10.0 mi NNW 9.2 mph - N/A   Partly Cloudy
7:53 PM 46.9 °F - 21.9 °F 37% 29.98 in 10.0 mi NW 9.2 mph - N/A   Partly Cloudy
8:53 PM 45.0 °F 40.1 °F 24.1 °F 44% 29.98 in 10.0 mi NW 9.2 mph - N/A   Partly Cloudy
9:53 PM 42.1 °F 37.7 °F 24.1 °F 49% 29.98 in 10.0 mi WNW 6.9 mph - N/A   Partly Cloudy
10:53 PM 41.0 °F 35.8 °F 25.0 °F 53% 29.96 in 10.0 mi WNW 8.1 mph - N/A   Partly Cloudy
11:53 PM 41.0 °F 35.8 °F 26.1 °F 55% 29.94 in 10.0 mi WNW 8.1 mph - N/A   Partly Cloudy